Location: Oberwangen
(47.4286°N, 8.9679°E)
Time: 15:25:35
(UTC+00:00)

Cosmos 2322 - Pass Details

Date: 20 June 2021
Orbit: 839 x 856 km, 71.0° (Epoch: 02 August)

Event Time Altitude Azimuth Distance (km) Brightness Sun altitude
Rises 21:07:16 0° 208° (SSW) 3,379 6.5 -12.6°
Reaches altitude 10° 21:09:41 10° 209° (SSW) 2,449 5.8 -12.8°
Maximum altitude 21:15:19 82° 297° (WNW) 854 3.8 -13.3°
Drops below altitude 10° 21:21:00 10° 26° (NNE) 2,470 6.6 -13.8°
Sets 21:23:28 0° 27° (NNE) 3,411 7.4 -14.0°
